FW7858 Weather Reports


Display with metric or nautical units.
time (UTC)temp
F
wind
direction
speed
MPH
gust
MPH
rain 1hr
in
rain 24hr
in
rain mn
in
humidity
%
barometer
mb
20260902090028 61 360 0.0 2.0 0.00 0.00 0.00 91 1010.7
20260902085526 60 360 1.0 2.0 0.00 0.00 0.00 92 1010.6
20260902085026 60 360 1.0 2.0 0.00 0.00 0.00 92 1010.5
20260902084525 61 360 0.0 1.0 0.00 0.00 0.00 93 1010.5
20260902084025 61 360 0.0 3.0 0.00 0.00 0.00 93 1010.5
20260902083524 61 360 1.0 3.0 0.00 0.00 0.00 92 1010.3
20260902083024 61 360 0.0 0.0 0.00 0.00 0.00 92 1010.3
20260902082524 60 360 0.0 0.0 0.00 0.00 0.00 92 1010.2
20260902082028 61 360 0.0 0.0 0.00 0.00 0.00 92 1010.2
20260902081522 61 360 0.0 0.0 0.00 0.00 0.00 92 1010.1
20260902081022 61 360 0.0 0.0 0.00 0.00 0.00 92 1009.9
20260902080520 61 360 0.0 0.0 0.00 0.00 0.00 92 1009.8
20260902080022 61 360 0.0 0.0 0.00 0.00 0.00 92 1009.8
20260902075519 61 360 0.0 0.0 0.00 0.00 0.00 92 1009.9
20260902075019 62 360 0.0 0.0 0.00 0.00 0.00 92 1009.7
20260902074517 62 360 0.0 0.0 0.00 0.00 0.00 92 1009.8
20260902074017 62 360 0.0 0.0 0.00 0.00 0.00 92 1009.7
20260902073515 62 360 0.0 0.0 0.00 0.00 0.00 92 1009.7
20260902073014 63 284 0.0 0.0 0.00 0.00 0.00 92 1009.8
20260902072513 63 284 0.0 0.0 0.00 0.00 0.00 92 1009.7
20260902072012 63 284 0.0 3.0 0.00 0.00 0.00 92 1009.7
20260902071521 63 284 0.0 3.0 0.00 0.00 0.00 93 1009.8
20260902071012 63 284 0.0 3.0 0.00 0.00 0.00 93 1009.9
20260902070509 64 284 1.0 2.0 0.00 0.00 0.00 92 1010.0
20260902070008 64 284 0.0 0.0 0.00 0.00 0.00 92 1010.1
20260902065507 64 284 0.0 0.0 0.00 0.00 0.00 92 1010.1
20260902065008 64 284 0.0 2.0 0.00 0.00 0.00 93 1010.3
20260902064511 64 284 0.0 2.0 0.00 0.00 0.00 92 1010.3
20260902064008 64 284 0.0 0.0 0.00 0.00 0.00 92 1010.2
20260902063504 64 284 0.0 0.0 0.00 0.00 0.00 91 1010.4
20260902063007 64 284 0.0 0.0 0.00 0.00 0.00 91 1010.3
20260902062505 65 284 0.0 2.0 0.00 0.00 0.00 91 1010.4
20260902062004 65 284 0.0 3.0 0.00 0.00 0.00 92 1010.3
20260902061505 65 284 1.0 3.0 0.00 0.00 0.00 92 1010.4
20260902061003 65 284 1.0 2.0 0.00 0.00 0.00 92 1010.4
20260902060501 65 284 1.0 2.0 0.00 0.00 0.00 92 1010.5
20260902060001 65 284 1.0 2.0 0.00 0.00 0.00 92 1010.6
20260902055501 64 284 0.0 0.0 0.00 0.00 0.00 91 1010.6
20260902055002 64 284 0.0 0.0 0.00 0.00 0.00 90 1010.7
20260902054600 64 284 0.0 0.0 0.00 0.00 0.00 89 1010.7
20260902054102 65 284 0.0 0.0 0.00 0.00 0.00 89 1010.7
20260902053602 65 284 0.0 0.0 0.00 0.00 0.00 89 1010.8
20260902053102 65 284 0.0 0.0 0.00 0.00 0.00 89 1010.8
20260902052559 65 284 0.0 1.0 0.00 0.00 0.00 88 1010.8
20260902052055 65 284 0.0 2.0 0.00 0.00 0.00 88 1010.7
20260902051604 66 284 0.0 3.0 0.00 0.00 0.00 88 1010.5
20260902051054 66 284 1.0 3.0 0.00 0.00 0.00 88 1010.4
20260902050553 66 209 0.0 0.0 0.00 0.00 0.00 87 1010.5
20260902050051 66 209 0.0 0.0 0.00 0.00 0.00 86 1010.6
20260902045555 66 209 0.0 0.0 0.00 0.00 0.00 85 1010.7
20260902045051 66 209 0.0 2.0 0.00 0.00 0.00 85 1010.6
20260902044551 66 209 0.0 3.0 0.00 0.00 0.00 84 1010.7
20260902044051 67 209 1.0 3.0 0.00 0.00 0.00 85 1010.5
20260902043551 67 208 1.0 2.0 0.00 0.00 0.00 86 1010.7
20260902043053 67 208 0.0 2.0 0.00 0.00 0.00 86 1010.8
20260902042551 67 208 0.0 0.0 0.00 0.00 0.00 85 1010.8
20260902042050 67 208 0.0 0.0 0.00 0.00 0.00 84 1010.8
20260902041550 67 208 0.0 0.0 0.00 0.00 0.00 82 1010.9
20260902041050 67 208 0.0 0.0 0.00 0.00 0.00 82 1010.9
20260902040550 67 208 0.0 0.0 0.00 0.00 0.00 81 1010.9
20260902040049 68 208 0.0 0.0 0.00 0.00 0.00 82 1010.9
20260902035550 68 208 0.0 0.0 0.00 0.00 0.00 82 1011.0
20260902035049 68 208 0.0 0.0 0.00 0.00 0.00 81 1011.0
20260902034549 68 208 0.0 0.0 0.00 0.00 0.00 79 1010.9
20260902034048 68 208 0.0 0.0 0.00 0.00 0.00 80 1010.9
20260902033551 68 208 0.0 0.0 0.00 0.00 0.00 79 1010.9
20260902033049 68 208 0.0 0.0 0.00 0.00 0.00 79 1011.0
20260902032549 68 208 0.0 0.0 0.00 0.00 0.00 79 1011.0
20260902032050 68 208 0.0 0.0 0.00 0.00 0.00 79 1011.0
20260902031548 68 208 0.0 0.0 0.00 0.00 0.00 79 1011.0
20260902031048 68 208 0.0 0.0 0.00 0.00 0.00 80 1011.0
20260902030548 68 208 0.0 0.0 0.00 0.00 0.00 79 1010.9
20260902030047 68 208 0.0 0.0 0.00 0.00 0.00 79 1010.8
20260902025547 69 208 0.0 0.0 0.00 0.00 0.00 79 1010.7
20260902025047 69 208 0.0 0.0 0.00 0.00 0.00 78 1010.7
20260902024547 69 208 0.0 0.0 0.00 0.00 0.00 77 1010.7
20260902024046 69 208 0.0 0.0 0.00 0.00 0.00 78 1010.7
20260902023546 69 208 0.0 0.0 0.00 0.00 0.00 77 1010.6
20260902023048 70 208 0.0 0.0 0.00 0.00 0.00 77 1010.6
20260902022547 70 208 0.0 0.0 0.00 0.00 0.00 73 1010.5
20260902022046 70 208 0.0 0.0 0.00 0.00 0.00 73 1010.5
20260902021548 70 208 0.0 0.0 0.00 0.00 0.00 74 1010.5
20260902021047 70 208 0.0 1.0 0.00 0.00 0.00 73 1010.5
20260902020546 70 208 0.0 4.0 0.00 0.00 0.00 74 1010.5
20260902020105 71 208 0.0 4.0 0.00 0.00 0.00 73 1010.5
20260902015545 71 208 3.0 4.0 0.00 0.00 0.00 73 1010.4
20260902015045 71 240 0.0 2.0 0.00 0.00 0.00 72 1010.4
20260902014552 71 240 0.0 3.0 0.00 0.00 0.00 72 1010.5
20260902014046 71 240 1.0 3.0 0.00 0.00 0.00 75 1010.4
20260902013550 71 240 1.0 2.0 0.00 0.00 0.00 76 1010.4
20260902013046 72 240 1.0 2.0 0.00 0.00 0.00 73 1010.4
20260902012544 72 240 0.0 0.0 0.00 0.00 0.00 71 1010.4
20260902012044 72 240 0.0 0.0 0.00 0.00 0.00 70 1010.4
20260902011544 72 240 0.0 0.0 0.00 0.00 0.00 70 1010.3
20260902011045 73 240 0.0 0.0 0.00 0.00 0.00 69 1010.1
20260902010545 73 240 0.0 0.0 0.00 0.00 0.00 69 1010.2
20260902010048 73 240 0.0 0.0 0.00 0.00 0.00 69 1010.1
20260902005548 74 240 0.0 0.0 0.00 0.00 0.00 68 1010.1
20260902005043 74 240 0.0 0.0 0.00 0.00 0.00 67 1010.1
20260902004543 74 240 0.0 0.0 0.00 0.00 0.00 66 1010.1
20260902004043 74 240 0.0 0.0 0.00 0.00 0.00 66 1010.0
20260902003543 75 240 0.0 0.0 0.00 0.00 0.00 67 1010.2
20260902003043 75 240 0.0 0.0 0.00 0.00 0.00 67 1010.3
20260902002542 75 240 0.0 0.0 0.00 0.00 0.00 66 1010.3
20260902002042 75 240 0.0 0.0 0.00 0.00 0.00 65 1010.3
20260902001542 76 240 0.0 0.0 0.00 0.00 0.00 64 1010.3
20260902001046 76 240 0.0 0.0 0.00 0.00 0.00 62 1010.2
20260902000542 76 240 0.0 0.0 0.00 0.00 0.00 61 1010.2
20260902000044 76 240 0.0 0.0 0.00 0.00 0.00 59 1010.1
20260901235542 77 240 0.0 0.0 0.00 0.00 0.00 58 1010.1
20260901235041 77 240 0.0 0.0 0.00 0.00 0.00 58 1010.1
20260901234559 77 240 0.0 1.0 0.00 0.00 0.00 58 1010.1
20260901234042 77 240 0.0 1.0 0.00 0.00 0.00 57 1010.1
20260901233541 77 240 0.0 0.0 0.00 0.00 0.00 58 1010.2
20260901233050 78 240 0.0 0.0 0.00 0.00 0.00 57 1010.1
20260901232541 78 240 0.0 0.0 0.00 0.00 0.00 58 1010.2
20260901232041 78 240 0.0 1.0 0.00 0.00 0.00 58 1010.3
20260901231540 78 240 0.0 2.0 0.00 0.00 0.00 57 1010.3
20260901231041 78 240 1.0 3.0 0.00 0.00 0.00 57 1010.4
20260901230542 78 240 1.0 3.0 0.00 0.00 0.00 55 1010.4
20260901230047 78 240 0.0 3.0 0.00 0.00 0.00 55 1010.4
20260901225540 78 240 1.0 3.0 0.00 0.00 0.00 54 1010.4
20260901225039 78 240 1.0 3.0 0.00 0.00 0.00 54 1010.4
20260901224542 78 240 1.0 3.0 0.00 0.00 0.00 53 1010.4
20260901224039 79 240 0.0 5.0 0.00 0.00 0.00 53 1010.4
20260901223540 79 241 2.0 5.0 0.00 0.00 0.00 51 1010.5
20260901223038 79 240 2.0 5.0 0.00 0.00 0.00 52 1010.5
20260901222538 79 240 3.0 7.0 0.00 0.00 0.00 52 1010.6
20260901222038 80 238 2.0 7.0 0.00 0.00 0.00 51 1010.5
20260901221602 80 240 3.0 7.0 0.00 0.00 0.00 50 1010.5
20260901221038 81 238 2.0 7.0 0.00 0.00 0.00 49 1010.6
20260901220537 80 240 3.0 6.0 0.00 0.00 0.00 52 1010.7
20260901220036 79 248 2.0 5.0 0.00 0.00 0.00 54 1010.7
20260901215536 79 240 0.0 4.0 0.00 0.00 0.00 56 1010.6
20260901215035 79 240 0.0 4.0 0.00 0.00 0.00 54 1010.7
20260901214536 79 240 1.0 5.0 0.00 0.00 0.00 53 1010.7
20260901214035 79 240 1.0 5.0 0.00 0.00 0.00 53 1010.6
20260901213537 79 239 0.0 5.0 0.00 0.00 0.00 54 1010.6
20260901213038 79 239 3.0 5.0 0.00 0.00 0.00 55 1010.7
20260901212535 79 236 2.0 4.0 0.00 0.00 0.00 55 1010.6
20260901212034 79 235 2.0 4.0 0.00 0.00 0.00 54 1010.5
20260901211537 79 235 0.0 3.0 0.00 0.00 0.00 56 1010.4
20260901211034 79 235 1.0 5.0 0.00 0.00 0.00 54 1010.4
20260901210533 79 235 1.0 5.0 0.00 0.00 0.00 52 1010.5
20260901210037 80 237 3.0 7.0 0.00 0.00 0.00 51 1010.6
20260901205531 80 236 0.0 5.0 0.00 0.00 0.00 52 1010.6
20260901205031 80 227 1.0 5.0 0.00 0.00 0.00 51 1010.6
20260901204535 80 242 1.0 7.0 0.00 0.00 0.00 51 1010.6
20260901204031 81 241 2.0 7.0 0.00 0.00 0.00 49 1010.6
20260901203531 81 246 2.0 7.0 0.00 0.00 0.00 49 1010.6
20260901203046 81 233 1.0 10.0 0.00 0.00 0.00 48 1010.6
20260901202531 81 218 5.0 10.0 0.00 0.00 0.00 48 1010.6
20260901202032 82 234 4.0 10.0 0.00 0.00 0.00 49 1010.5
20260901201539 81 250 4.0 10.0 0.00 0.00 0.00 50 1010.6
20260901201027 81 252 1.0 10.0 0.00 0.00 0.00 50 1010.6
20260901200525 81 240 2.0 8.0 0.00 0.00 0.00 51 1010.6
20260901200028 80 240 4.0 8.0 0.00 0.00 0.00 53 1010.6
20260901195522 79 244 0.0 4.0 0.00 0.00 0.00 54 1010.6
20260901195023 78 245 2.0 8.0 0.00 0.00 0.00 57 1010.7
20260901194521 78 243 4.0 8.0 0.00 0.00 0.00 56 1010.8
20260901194023 78 241 2.0 4.0 0.00 0.00 0.00 55 1010.9
20260901193520 78 241 0.0 2.0 0.00 0.00 0.00 57 1010.8
20260901193020 78 241 0.0 2.0 0.00 0.00 0.00 57 1010.9
20260901192521 77 241 0.0 5.0 0.00 0.00 0.00 58 1010.9
20260901192024 77 241 2.0 7.0 0.00 0.00 0.00 56 1011.1
20260901191521 78 242 3.0 7.0 0.00 0.00 0.00 56 1011.1
20260901191018 78 245 3.0 7.0 0.00 0.00 0.00 56 1010.9
20260901190518 78 252 1.0 6.0 0.00 0.00 0.00 55 1010.9
20260901190019 78 240 3.0 6.0 0.00 0.00 0.00 55 1011.0
20260901185517 78 346 0.0 6.0 0.00 0.00 0.00 56 1011.1
20260901185015 78 220 2.0 6.0 0.00 0.00 0.00 54 1011.1
20260901184514 78 283 1.0 7.0 0.00 0.00 0.00 56 1011.2
20260901184015 78 250 1.0 7.0 0.00 0.00 0.00 56 1011.4
20260901183513 78 250 2.0 7.0 0.00 0.00 0.00 56 1011.4
20260901183012 78 250 4.0 7.0 0.00 0.00 0.00 57 1011.4
20260901182511 78 246 0.0 9.0 0.00 0.00 0.00 57 1011.5
20260901182010 78 243 4.0 9.0 0.00 0.00 0.00 57 1011.5
20260901181514 77 244 1.0 4.0 0.00 0.00 0.00 60 1011.5
20260901181010 77 248 0.0 4.0 0.00 0.00 0.00 59 1011.5
20260901180509 76 237 2.0 4.0 0.00 0.00 0.00 59 1011.7
20260901180007 76 237 0.0 5.0 0.00 0.00 0.00 60 1011.8
20260901175509 76 237 1.0 7.0 0.00 0.00 0.00 60 1011.9
20260901175007 76 307 1.0 7.0 0.00 0.00 0.00 59 1012.1
20260901174509 77 244 2.0 7.0 0.00 0.00 0.00 59 1012.0
20260901174007 76 296 0.0 6.0 0.00 0.00 0.00 62 1011.9
20260901173504 76 238 3.0 7.0 0.00 0.00 0.00 61 1012.0
20260901173002 76 229 2.0 5.0 0.00 0.00 0.00 62 1012.0
20260901172503 75 229 1.0 5.0 0.00 0.00 0.00 62 1012.0
20260901172103 75 246 3.0 7.0 0.00 0.00 0.00 61 1012.1
20260901171605 75 240 2.0 7.0 0.00 0.00 0.00 61 1012.1
20260901171058 75 242 3.0 7.0 0.00 0.00 0.00 62 1012.2
20260901170558 75 241 2.0 5.0 0.00 0.00 0.00 63 1012.1
20260901170058 74 242 2.0 5.0 0.00 0.00 0.00 64 1012.1
20260901165554 74 242 3.0 5.0 0.00 0.00 0.00 64 1012.2
20260901165053 74 240 3.0 5.0 0.00 0.00 0.00 66 1012.2
20260901164552 74 243 1.0 5.0 0.00 0.00 0.00 66 1012.2
20260901164051 73 243 3.0 7.0 0.00 0.00 0.00 66 1012.3
20260901163550 73 248 3.0 7.0 0.00 0.00 0.00 66 1012.3
20260901163050 73 238 3.0 7.0 0.00 0.00 0.00 66 1012.2
20260901162548 73 250 0.0 5.0 0.00 0.00 0.00 68 1012.2
20260901162047 73 250 2.0 5.0 0.00 0.00 0.00 67 1012.1
20260901161549 72 252 2.0 5.0 0.00 0.00 0.00 68 1012.1
20260901161052 72 227 1.0 6.0 0.00 0.00 0.00 68 1012.2
20260901160550 72 236 2.0 5.0 0.00 0.00 0.00 68 1012.4
20260901160055 72 244 3.0 5.0 0.00 0.00 0.00 67 1012.2
20260901155544 72 240 0.0 7.0 0.00 0.00 0.00 69 1012.1
20260901155046 72 240 2.0 8.0 0.00 0.00 0.00 68 1012.3
20260901154544 72 250 4.0 10.0 0.00 0.00 0.00 66 1012.4
20260901154048 72 237 7.0 10.0 0.00 0.00 0.00 66 1012.6
20260901153543 72 230 7.0 12.0 0.00 0.00 0.00 66 1012.6
20260901153042 72 223 9.0 12.0 0.00 0.00 0.00 67 1012.6
20260901152541 71 239 7.0 11.0 0.00 0.00 0.00 68 1012.6
20260901152041 71 227 7.0 11.0 0.00 0.00 0.00 67 1012.6
20260901151544 71 225 7.0 12.0 0.00 0.00 0.00 69 1012.6
20260901151039 71 202 7.0 10.0 0.00 0.00 0.00 71 1012.5
20260901150537 70 196 5.0 10.0 0.00 0.00 0.00 71 1012.5
20260901150036 70 224 5.0 9.0 0.00 0.00 0.00 73 1012.4
20260901145535 69 192 5.0 7.0 0.00 0.00 0.00 76 1012.2
20260901145034 68 208 3.0 7.0 0.00 0.00 0.00 78 1012.1
20260901144533 68 212 4.0 7.0 0.00 0.00 0.00 78 1012.3
20260901144031 67 206 3.0 6.0 0.00 0.00 0.00 80 1012.3
20260901143530 67 171 3.0 5.0 0.00 0.00 0.00 82 1012.2
20260901143032 67 152 0.0 7.0 0.00 0.00 0.00 83 1012.4
20260901142529 67 152 2.0 7.0 0.00 0.00 0.00 84 1012.5
20260901142029 67 167 2.0 5.0 0.00 0.00 0.00 83 1012.6
20260901141529 66 167 3.0 5.0 0.00 0.00 0.00 84 1012.6
20260901141027 66 163 2.0 3.0 0.00 0.00 0.00 84 1012.7
20260901140525 65 163 2.0 5.0 0.00 0.00 0.00 85 1012.7
20260901140023 64 163 2.0 6.0 0.00 0.00 0.00 86 1012.7
20260901135525 63 161 2.0 6.0 0.00 0.00 0.00 89 1012.7
20260901135022 62 186 0.0 0.0 0.00 0.00 0.00 91 1012.9
20260901134536 61 186 0.0 0.0 0.00 0.00 0.00 92 1012.8
20260901134020 61 186 0.0 3.0 0.00 0.00 0.00 93 1012.7
20260901133521 60 186 0.0 3.0 0.00 0.00 0.00 94 1012.5
20260901133019 59 186 1.0 3.0 0.00 0.00 0.00 95 1012.4
20260901132519 59 186 0.0 2.0 0.00 0.00 0.00 96 1012.4
20260901132019 58 360 0.0 3.0 0.00 0.00 0.00 97 1012.4
20260901131520 57 360 1.0 2.0 0.00 0.00 0.00 97 1012.3
20260901131020 55 360 0.0 2.0 0.00 0.00 0.00 96 1012.4
20260901130521 55 360 0.0 0.0 0.00 0.00 0.00 96 1012.4
20260901130018 54 360 0.0 0.0 0.00 0.00 0.00 96 1012.3
20260901125516 54 360 0.0 0.0 0.00 0.00 0.00 95 1012.3
20260901125017 54 360 0.0 0.0 0.00 0.00 0.00 95 1012.3
20260901124522 54 360 0.0 0.0 0.00 0.00 0.00 94 1012.2
20260901124014 53 360 0.0 1.0 0.00 0.00 0.00 94 1012.2
20260901123514 53 360 0.0 1.0 0.00 0.00 0.00 93 1012.2
20260901123013 54 360 0.0 0.0 0.00 0.00 0.00 93 1012.2
20260901122512 54 360 0.0 1.0 0.00 0.00 0.00 93 1012.1
20260901122012 54 360 0.0 1.0 0.00 0.00 0.00 93 1012.0
20260901121513 54 360 0.0 0.0 0.00 0.00 0.00 93 1012.0
20260901121010 54 360 0.0 0.0 0.00 0.00 0.00 93 1011.9
20260901120511 54 360 0.0 0.0 0.00 0.00 0.00 92 1011.9
20260901120006 54 360 0.0 0.0 0.00 0.00 0.00 93 1011.8
20260901115505 54 360 0.0 0.0 0.00 0.00 0.00 92 1011.7
20260901115005 55 360 0.0 0.0 0.00 0.00 0.00 92 1011.6
20260901114504 55 360 0.0 2.0 0.00 0.00 0.00 91 1011.5
20260901114003 55 360 0.0 2.0 0.00 0.00 0.00 91 1011.5
20260901113501 56 360 0.0 2.0 0.00 0.00 0.00 91 1011.5
20260901113000 56 360 0.0 1.0 0.00 0.00 0.00 92 1011.3
20260901112500 56 360 0.0 2.0 0.00 0.00 0.00 92 1011.2
20260901112100 56 360 0.0 4.0 0.00 0.00 0.00 92 1011.3
20260901111601 56 360 1.0 4.0 0.00 0.00 0.00 92 1011.2
20260901111058 56 360 2.0 4.0 0.00 0.00 0.00 89 1011.3
20260901110601 57 360 0.0 0.0 0.00 0.00 0.00 90 1011.2
20260901110105 57 360 0.0 0.0 0.00 0.00 0.00 89 1011.1
20260901105558 57 360 0.0 0.0 0.00 0.00 0.00 90 1011.0
20260901105055 58 360 0.0 0.0 0.00 0.00 0.00 90 1011.0
20260901104553 58 360 0.0 0.0 0.00 0.00 0.00 89 1011.0
20260901104050 59 360 0.0 1.0 0.00 0.00 0.00 89 1010.8
20260901103549 59 360 0.0 3.0 0.00 0.00 0.00 90 1010.6
20260901103050 59 360 1.0 3.0 0.00 0.00 0.00 90 1010.6
20260901102547 60 360 1.0 3.0 0.00 0.00 0.00 90 1010.5
20260901102047 60 360 1.0 3.0 0.00 0.00 0.00 90 1010.4
20260901101609 60 360 0.0 2.0 0.00 0.00 0.00 90 1010.5
20260901101046 60 360 0.0 2.0 0.00 0.00 0.00 90 1010.5
20260901100550 60 360 0.0 2.0 0.00 0.00 0.00 90 1010.5
20260901100100 60 360 0.0 0.0 0.00 0.00 0.00 90 1010.6
20260901095545 60 360 0.0 0.0 0.00 0.00 0.00 89 1010.6
20260901095044 60 360 0.0 0.0 0.00 0.00 0.00 89 1010.7
20260901094544 60 360 0.0 0.0 0.00 0.00 0.00 88 1010.7
20260901094041 61 360 0.0 0.0 0.00 0.00 0.00 88 1010.6
20260901093544 61 360 0.0 0.0 0.00 0.00 0.00 87 1010.6
20260901093041 61 360 0.0 0.0 0.00 0.00 0.00 87 1010.5
20260901092540 61 206 0.0 0.0 0.00 0.00 0.00 87 1010.5
20260901092039 61 206 0.0 0.0 0.00 0.00 0.00 87 1010.5
20260901091539 61 207 0.0 0.0 0.00 0.00 0.00 87 1010.4
20260901091041 61 207 0.0 1.0 0.00 0.00 0.00 87 1010.3
20260901090538 61 207 0.0 1.0 0.00 0.00 0.00 86 1010.3